Retour au catalogue

STARLINK-5257

ActifCommunicationsVLEO
NORAD 55316·PAYLOAD·🇺🇸 United States

Lancé Jan 19, 2023 depuis Vandenberg Space Force Base

Loading…

Prochains Passages (prochaines 24 heures)

TLE

FraisSource: CelesTrak SupGP

Époque: Sep 15, 2026, 02:33 UTC

1 55316C 23010AZ  26258.10673611 -.00046447  00000+0 -38921-2 0  2583
2 55316  69.9999 246.7615 0003944 270.0157 248.6137 14.98354693    10

Suivez STARLINK-5257 en temps réel avec AllMySat

Download on the App Store